QPF
0.00 0.00 0.00 0.00 0.00 0.01 0.01 0.00 0.00 0.00 0.01 0.01 0.01 0.01 0.01 0.01 0.01 0.01 0.01 0.02 0.02 0.02 0.02 0.02 0.01 0.01 0.01 0.01 0.01 0.02 0.02 0.03 0.04 0.04 0.04 0.05 0.08 0.08 0.07 0.08 0.09 0.12 0.09 0.06
0.00 0.00 0.00 0.00 0.00 0.00 0.00 0.00 0.00 0.00 0.01 0.01 0.02 0.02 0.01 0.01 0.01 0.01 0.01 0.02 0.02 0.02 0.02 0.02 0.01 0.01 0.01 0.00 0.01 0.01 0.02 0.02 0.03 0.03 0.04 0.04 0.05 0.06 0.06 0.07 0.09 0.10 0.13 0.13
0.00 0.00 0.00 0.00 0.00 0.00 0.00 0.01 0.00 0.00 0.02 0.02 0.03 0.03 0.02 0.02 0.01 0.01 0.02 0.02 0.02 0.03 0.03 0.02 0.01 0.01 0.01 0.01 0.01 0.01 0.01 0.01 0.02 0.02 0.03 0.03 0.04 0.04 0.04 0.04 0.05 0.07 0.09 0.09
0.01 0.01 0.00 0.00 0.00 0.00 0.00 0.00 0.00 0.00 0.02 0.02 0.02 0.03 0.02 0.02 0.01 0.01 0.02 0.02 0.02 0.02 0.02 0.02 0.02 0.01 0.01 0.01 0.01 0.01 0.01 0.01 0.02 0.02 0.02 0.03 0.03 0.02 0.02 0.03 0.03 0.04 0.06 0.07
0.02 0.01 0.00 0.00 0.00 0.00 0.00 0.00 0.00 0.00 0.01 0.02 0.02 0.02 0.02 0.01 0.01 0.02 0.01 0.01 0.01 0.01 0.01 0.01 0.01 0.01 0.01 0.01 0.01 0.01 0.01 0.01 0.01 0.02 0.02 0.02 0.02 0.02 0.02 0.02 0.03 0.04 0.04 0.05
0.01 0.00 0.01 0.01 0.01 0.01 0.01 0.01 0.01 0.01 0.03 0.03 0.01 0.00 0.01 0.01 0.01 0.01 0.01 0.01 0.01 0.01 0.01 0.01 0.01 0.01 0.01 0.01 0.01 0.01 0.01 0.01 0.01 0.01 0.02 0.02 0.02 0.02 0.02 0.02 0.02 0.03 0.04 0.04
0.01 0.00 0.00 0.00 0.01 0.01 0.01 0.02 0.03 0.03 0.03 0.02 0.01 0.01 0.02 0.02 0.01 0.01 0.01 0.01 0.01 0.01 0.01 0.00 0.01 0.00 0.01 0.02 0.02 0.01 0.01 0.01 0.01 0.01 0.01 0.01 0.01 0.02 0.02 0.01 0.02 0.02 0.03 0.03
0.00 0.00 0.00 0.00 0.01 0.01 0.01 0.02 0.02 0.01 0.01 0.01 0.00 0.01 0.02 0.02 0.01 0.01 0.01 0.00 0.00 0.00 0.01 0.00 0.00 0.00 0.01 0.01 0.01 0.02 0.02 0.01 0.01 0.01 0.01 0.01 0.01 0.01 0.02 0.01 0.01 0.01 0.02 0.02
0.00 0.00 0.00 0.00 0.00 0.01 0.01 0.01 0.01 0.02 0.01 0.01 0.01 0.01 0.01 0.01 0.01 0.00 0.00 0.00 0.00 0.00 0.00 0.00 0.00 0.00 0.00 0.01 0.01 0.01 0.01 0.01 0.01 0.01 0.01 0.01 0.02 0.02 0.02 0.02 0.02 0.02 0.01 0.01
0.00 0.01 0.00 0.00 0.00 0.00 0.01 0.01 0.01 0.03 0.03 0.02 0.01 0.01 0.01 0.01 0.01 0.00 0.00 0.00 0.00 0.00 0.00 0.00 0.00 0.00 0.00 0.00 0.00 0.00 0.00 0.00 0.00 0.01 0.01 0.01 0.01 0.02 0.02 0.03 0.02 0.02 0.02 0.02
0.01 0.01 0.00 0.00 0.00 0.00 0.00 0.01 0.01 0.02 0.02 0.02 0.01 0.01 0.01 0.01 0.01 0.00 0.00 0.00 0.00 0.00 0.00 0.00 0.01 0.01 0.00 0.00 0.00 0.00 0.00 0.00 0.00 0.00 0.01 0.01 0.02 0.02 0.02 0.02 0.03 0.03 0.02 0.03
0.01 0.02 0.02 0.00 0.00 0.00 0.00 0.00 0.01 0.02 0.02 0.01 0.01 0.01 0.01 0.01 0.01 0.00 0.00 0.00 0.00 0.00 0.00 0.00 0.00 0.00 0.00 0.00 0.00 0.00 0.00 0.00 0.00 0.00 0.00 0.01 0.01 0.01 0.01 0.01 0.02 0.02 0.02 0.02
0.02 0.03 0.04 0.02 0.01 0.01 0.01 0.01 0.01 0.01 0.01 0.01 0.01 0.01 0.01 0.01 0.00 0.00 0.00 0.00 0.00 0.00 0.00 0.00 0.00 0.00 0.00 0.00 0.00 0.00 0.00 0.01 0.01 0.01 0.01 0.01 0.01 0.01 0.01 0.01 0.01 0.02 0.02 0.02
0.03 0.04 0.02 0.01 0.00 0.00 0.01 0.00 0.00 0.01 0.02 0.01 0.01 0.00 0.00 0.00 0.00 0.00 0.00 0.00 0.00 0.00 0.00 0.00 0.00 0.00 0.00 0.00 0.00 0.00 0.00 0.00 0.01 0.01 0.01 0.01 0.01 0.01 0.01 0.01 0.01 0.02 0.02 0.02
0.06 0.06 0.03 0.01 0.00 0.00 0.00 0.00 0.00 0.01 0.01 0.01 0.00 0.00 0.00 0.00 0.00 0.00 0.00 0.00 0.00 0.00 0.00 0.00 0.00 0.00 0.00 0.00 0.00 0.00 0.00 0.00 0.01 0.01 0.01 0.01 0.01 0.01 0.01 0.02 0.02 0.02 0.03 0.03
0.07 0.08 0.04 0.02 0.01 0.00 0.01 0.00 0.00 0.00 0.00 0.00 0.00 0.00 0.00 0.00 0.00 0.00 0.00 0.00 0.00 0.00 0.00 0.00 0.00 0.00 0.00 0.00 0.00 0.00 0.00 0.00 0.00 0.01 0.01 0.01 0.02 0.02 0.02 0.02 0.03 0.03 0.03 0.03
0.07 0.07 0.07 0.05 0.02 0.02 0.02 0.01 0.00 0.00 0.00 0.00 0.00 0.00 0.00 0.00 0.00 0.00 0.00 0.00 0.00 0.00 0.00 0.00 0.00 0.00 0.00 0.00 0.00 0.00 0.00 0.00 0.01 0.01 0.01 0.01 0.02 0.02 0.02 0.03 0.03 0.04 0.03 0.03
0.05 0.06 0.07 0.05 0.03 0.04 0.02 0.00 0.00 0.00 0.00 0.00 0.00 0.00 0.00 0.00 0.00 0.00 0.00 0.00 0.00 0.00 0.00 0.00 0.00 0.00 0.00 0.00 0.00 0.00 0.00 0.00 0.01 0.01 0.01 0.01 0.01 0.02 0.03 0.03 0.03 0.03 0.03 0.03
0.03 0.04 0.08 0.08 0.05 0.03 0.01 0.00 0.00 0.00 0.00 0.00 0.00 0.00 0.00 0.00 0.00 0.00 0.00 0.00 0.00 0.00 0.00 0.00 0.00 0.00 0.00 0.00 0.00 0.00 0.00 0.01 0.01 0.02 0.01 0.01 0.02 0.02 0.03 0.03 0.03 0.03 0.03 0.04
0.02 0.04 0.07 0.07 0.06 0.03 0.01 0.00 0.00 0.00 0.00 0.00 0.00 0.00 0.00 0.00 0.01 0.00 0.00 0.00 0.00 0.00 0.00 0.00 0.00 0.00 0.00 0.00 0.00 0.00 0.01 0.01 0.02 0.03 0.02 0.03 0.03 0.03 0.02 0.03 0.04 0.04 0.04 0.05
0.02 0.05 0.06 0.05 0.04 0.02 0.00 0.00 0.00 0.01 0.00 0.00 0.00 0.00 0.00 0.00 0.00 0.00 0.00 0.00 0.00 0.00 0.00 0.00 0.00 0.00 0.00 0.00 0.00 0.01 0.01 0.01 0.02 0.04 0.02 0.02 0.03 0.04 0.04 0.03 0.03 0.04 0.04 0.04
0.01 0.02 0.02 0.03 0.04 0.02 0.00 0.00 0.00 0.00 0.00 0.00 0.00 0.00 0.00 0.00 0.00 0.00 0.00 0.01 0.01 0.00 0.00 0.00 0.00 0.00 0.00 0.00 0.00 0.01 0.01 0.02 0.02 0.03 0.03 0.02 0.02 0.02 0.03 0.04 0.05 0.05 0.04 0.04
0.00 0.00 0.01 0.01 0.01 0.00 0.00 0.00 0.00 0.00 0.00 0.00 0.00 0.00 0.00 0.00 0.01 0.01 0.01 0.01 0.01 0.01 0.01 0.00 0.00 0.00 0.00 0.00 0.00 0.01 0.01 0.01 0.02 0.03 0.03 0.03 0.02 0.02 0.02 0.03 0.03 0.04 0.04 0.03
0.00 0.00 0.00 0.01 0.00 0.00 0.00 0.00 0.00 0.00 0.00 0.00 0.00 0.00 0.00 0.00 0.00 0.01 0.01 0.01 0.01 0.01 0.00 0.00 0.00 0.00 0.00 0.00 0.00 0.01 0.01 0.01 0.02 0.03 0.03 0.03 0.03 0.03 0.03 0.03 0.03 0.03 0.03 0.03
0.01 0.01 0.01 0.01 0.01 0.00 0.00 0.00 0.00 0.00 0.00 0.00 0.00 0.00 0.00 0.00 0.00 0.00 0.00 0.00 0.00 0.00 0.00 0.00 0.00 0.00 0.00 0.00 0.00 0.01 0.01 0.01 0.02 0.02 0.03 0.03 0.03 0.02 0.03 0.03 0.03 0.03 0.03 0.03
0.01 0.01 0.01 0.01 0.01 0.00 0.00 0.00 0.00 0.00 0.00 0.00 0.00 0.00 0.00 0.00 0.00 0.00 0.00 0.00 0.00 0.00 0.00 0.00 0.00 0.00 0.00 0.00 0.00 0.01 0.01 0.02 0.02 0.03 0.03 0.03 0.03 0.02 0.03 0.03 0.03 0.03 0.02 0.02
MSLP
1013.99 1013.70 1013.32 1012.91 1012.50 1012.10 1011.73 1011.36 1010.97 1010.51 1009.95 1009.29 1008.54 1007.73 1006.92 1006.18 1005.53 1005.02 1004.64 1004.36 1004.13 1003.92 1003.67 1003.37 1003.04 1002.71 1002.43 1002.27 1002.28 1002.50 1002.93 1003.54 1004.27 1005.06 1005.86 1006.59 1007.24 1007.80 1008.29 1008.74 1009.20 1009.72 1010.32 1011.03
1013.97 1013.60 1013.17 1012.72 1012.30 1011.94 1011.63 1011.35 1011.04 1010.65 1010.13 1009.47 1008.69 1007.82 1006.94 1006.12 1005.43 1004.90 1004.53 1004.28 1004.10 1003.91 1003.67 1003.35 1002.94 1002.50 1002.09 1001.80 1001.68 1001.80 1002.18 1002.78 1003.55 1004.40 1005.27 1006.07 1006.77 1007.34 1007.80 1008.21 1008.60 1009.05 1009.59 1010.25
1013.92 1013.48 1012.98 1012.49 1012.06 1011.73 1011.49 1011.29 1011.06 1010.73 1010.25 1009.59 1008.78 1007.87 1006.94 1006.08 1005.38 1004.87 1004.55 1004.37 1004.27 1004.17 1003.98 1003.67 1003.23 1002.71 1002.18 1001.75 1001.49 1001.48 1001.76 1002.30 1003.05 1003.91 1004.80 1005.64 1006.36 1006.95 1007.40 1007.77 1008.12 1008.51 1008.99 1009.60
1013.85 1013.33 1012.77 1012.25 1011.82 1011.53 1011.34 1011.20 1011.04 1010.76 1010.30 1009.64 1008.80 1007.85 1006.88 1006.01 1005.31 1004.85 1004.61 1004.55 1004.59 1004.61 1004.53 1004.29 1003.87 1003.32 1002.71 1002.16 1001.76 1001.61 1001.75 1002.18 1002.84 1003.65 1004.51 1005.33 1006.05 1006.63 1007.08 1007.43 1007.76 1008.11 1008.55 1009.11
1013.75 1013.17 1012.57 1012.03 1011.62 1011.36 1011.23 1011.15 1011.04 1010.79 1010.33 1009.65 1008.77 1007.77 1006.76 1005.87 1005.20 1004.79 1004.66 1004.73 1004.93 1005.12 1005.21 1005.09 1004.76 1004.23 1003.61 1002.98 1002.47 1002.17 1002.16 1002.43 1002.95 1003.65 1004.42 1005.18 1005.85 1006.41 1006.85 1007.20 1007.51 1007.85 1008.27 1008.80
1013.62 1013.01 1012.40 1011.88 1011.51 1011.31 1011.23 1011.20 1011.12 1010.87 1010.40 1009.68 1008.74 1007.68 1006.62 1005.70 1005.03 1004.67 1004.63 1004.84 1005.21 1005.59 1005.86 1005.92 1005.73 1005.31 1004.72 1004.08 1003.50 1003.09 1002.92 1003.02 1003.37 1003.90 1004.53 1005.18 1005.77 1006.28 1006.70 1007.05 1007.37 1007.72 1008.13 1008.64
1013.45 1012.85 1012.28 1011.82 1011.52 1011.39 1011.37 1011.39 1011.33 1011.07 1010.57 1009.78 1008.77 1007.63 1006.50 1005.53 1004.84 1004.50 1004.52 1004.84 1005.35 1005.91 1006.38 1006.64 1006.63 1006.36 1005.88 1005.29 1004.69 1004.21 1003.92 1003.86 1004.02 1004.36 1004.81 1005.31 1005.80 1006.24 1006.62 1006.96 1007.30 1007.67 1008.10 1008.61
1013.23 1012.69 1012.21 1011.85 1011.65 1011.62 1011.68 1011.74 1011.69 1011.41 1010.86 1010.00 1008.91 1007.69 1006.48 1005.44 1004.71 1004.35 1004.39 1004.77 1005.37 1006.07 1006.70 1007.15 1007.33 1007.24 1006.91 1006.42 1005.88 1005.37 1005.00 1004.81 1004.80 1004.95 1005.23 1005.56 1005.92 1006.27 1006.60 1006.93 1007.27 1007.66 1008.11 1008.63
1012.93 1012.51 1012.17 1011.96 1011.90 1011.97 1012.11 1012.21 1012.16 1011.86 1011.25 1010.34 1009.17 1007.87 1006.59 1005.49 1004.69 1004.29 1004.30 1004.68 1005.31 1006.08 1006.82 1007.41 1007.76 1007.85 1007.69 1007.34 1006.89 1006.43 1006.03 1005.75 1005.61 1005.60 1005.70 1005.87 1006.09 1006.34 1006.61 1006.91 1007.26 1007.67 1008.14 1008.67
1012.57 1012.32 1012.15 1012.12 1012.21 1012.40 1012.61 1012.74 1012.68 1012.35 1011.70 1010.73 1009.52 1008.18 1006.86 1005.71 1004.86 1004.39 1004.34 1004.66 1005.26 1006.01 1006.78 1007.45 1007.92 1008.16 1008.16 1007.97 1007.64 1007.26 1006.89 1006.57 1006.35 1006.21 1006.16 1006.19 1006.27 1006.42 1006.62 1006.89 1007.23 1007.65 1008.13 1008.67
1012.14 1012.10 1012.14 1012.29 1012.53 1012.82 1013.08 1013.22 1013.14 1012.77 1012.08 1011.10 1009.88 1008.55 1007.23 1006.08 1005.21 1004.70 1004.57 1004.79 1005.29 1005.96 1006.69 1007.35 1007.87 1008.20 1008.33 1008.27 1008.09 1007.81 1007.50 1007.20 1006.93 1006.71 1006.56 1006.46 1006.44 1006.49 1006.62 1006.85 1007.17 1007.58 1008.07 1008.61
1011.67 1011.86 1012.12 1012.45 1012.82 1013.18 1013.45 1013.56 1013.43 1013.01 1012.30 1011.32 1010.15 1008.88 1007.63 1006.54 1005.70 1005.18 1004.99 1005.11 1005.48 1006.02 1006.63 1007.21 1007.71 1008.06 1008.27 1008.32 1008.25 1008.09 1007.86 1007.60 1007.34 1007.08 1006.85 1006.67 1006.55 1006.52 1006.60 1006.78 1007.07 1007.48 1007.96 1008.50
1011.20 1011.62 1012.09 1012.58 1013.04 1013.43 1013.67 1013.70 1013.49 1013.01 1012.27 1011.32 1010.23 1009.08 1007.97 1007.01 1006.26 1005.77 1005.55 1005.59 1005.83 1006.21 1006.66 1007.12 1007.53 1007.85 1008.08 1008.20 1008.22 1008.15 1008.01 1007.81 1007.57 1007.30 1007.04 1006.80 1006.62 1006.52 1006.54 1006.69 1006.96 1007.35 1007.82 1008.35
1010.76 1011.41 1012.06 1012.68 1013.19 1013.55 1013.70 1013.62 1013.29 1012.73 1011.96 1011.05 1010.07 1009.07 1008.15 1007.38 1006.78 1006.39 1006.19 1006.18 1006.31 1006.53 1006.82 1007.12 1007.40 1007.65 1007.85 1008.00 1008.07 1008.08 1008.01 1007.87 1007.66 1007.41 1007.12 1006.85 1006.63 1006.49 1006.47 1006.59 1006.85 1007.22 1007.69 1008.22
1010.39 1011.23 1012.04 1012.74 1013.26 1013.55 1013.59 1013.36 1012.89 1012.22 1011.42 1010.55 1009.68 1008.86 1008.16 1007.60 1007.19 1006.94 1006.81 1006.79 1006.84 1006.94 1007.07 1007.22 1007.37 1007.52 1007.67 1007.80 1007.90 1007.96 1007.94 1007.85 1007.68 1007.44 1007.15 1006.87 1006.62 1006.46 1006.42 1006.52 1006.77 1007.15 1007.62 1008.15
1010.07 1011.08 1012.02 1012.77 1013.26 1013.47 1013.36 1012.97 1012.35 1011.58 1010.73 1009.89 1009.13 1008.49 1008.00 1007.66 1007.46 1007.36 1007.33 1007.33 1007.35 1007.36 1007.38 1007.39 1007.43 1007.49 1007.58 1007.68 1007.78 1007.86 1007.88 1007.82 1007.67 1007.45 1007.17 1006.88 1006.63 1006.46 1006.41 1006.52 1006.77 1007.16 1007.64 1008.19
1009.77 1010.91 1011.93 1012.71 1013.17 1013.28 1013.05 1012.52 1011.77 1010.90 1010.02 1009.21 1008.54 1008.04 1007.74 1007.60 1007.58 1007.63 1007.71 1007.76 1007.78 1007.75 1007.68 1007.61 1007.56 1007.55 1007.59 1007.66 1007.76 1007.84 1007.88 1007.84 1007.72 1007.51 1007.24 1006.95 1006.70 1006.53 1006.50 1006.61 1006.89 1007.29 1007.80 1008.36
1009.39 1010.62 1011.69 1012.48 1012.92 1012.97 1012.65 1012.02 1011.19 1010.27 1009.37 1008.59 1008.00 1007.63 1007.46 1007.48 1007.60 1007.78 1007.94 1008.05 1008.08 1008.04 1007.94 1007.83 1007.74 1007.69 1007.70 1007.76 1007.86 1007.95 1007.99 1007.97 1007.85 1007.65 1007.39 1007.12 1006.88 1006.73 1006.71 1006.85 1007.15 1007.58 1008.11 1008.70
1008.83 1010.08 1011.17 1011.96 1012.39 1012.43 1012.08 1011.44 1010.60 1009.68 1008.82 1008.10 1007.58 1007.30 1007.24 1007.35 1007.57 1007.83 1008.05 1008.20 1008.26 1008.23 1008.14 1008.03 1007.94 1007.89 1007.91 1007.98 1008.08 1008.18 1008.23 1008.22 1008.11 1007.92 1007.68 1007.42 1007.20 1007.07 1007.08 1007.25 1007.57 1008.03 1008.59 1009.19
1007.96 1009.17 1010.24 1011.03 1011.48 1011.54 1011.25 1010.68 1009.92 1009.10 1008.33 1007.70 1007.28 1007.08 1007.09 1007.26 1007.52 1007.82 1008.07 1008.25 1008.33 1008.33 1008.28 1008.20 1008.15 1008.14 1008.19 1008.29 1008.41 1008.52 1008.59 1008.58 1008.49 1008.31 1008.09 1007.85 1007.67 1007.57 1007.61 1007.80 1008.15 1008.63 1009.20 1009.82
1006.70 1007.82 1008.82 1009.59 1010.07 1010.22 1010.05 1009.63 1009.04 1008.39 1007.79 1007.31 1007.00 1006.90 1006.96 1007.17 1007.45 1007.75 1008.01 1008.20 1008.32 1008.36 1008.36 1008.35 1008.36 1008.41 1008.52 1008.66 1008.82 1008.95 1009.03 1009.03 1008.95 1008.80 1008.60 1008.40 1008.25 1008.19 1008.27 1008.49 1008.86 1009.35 1009.92 1010.54
1005.07 1006.01 1006.91 1007.64 1008.15 1008.41 1008.41 1008.20 1007.86 1007.46 1007.09 1006.81 1006.66 1006.67 1006.80 1007.03 1007.32 1007.62 1007.88 1008.08 1008.23 1008.32 1008.39 1008.46 1008.56 1008.69 1008.87 1009.07 1009.26 1009.42 1009.52 1009.53 1009.47 1009.34 1009.18 1009.02 1008.91 1008.90 1009.02 1009.27 1009.66 1010.15 1010.71 1011.31
1003.14 1003.87 1004.61 1005.28 1005.82 1006.18 1006.37 1006.42 1006.36 1006.25 1006.16 1006.12 1006.16 1006.30 1006.52 1006.79 1007.10 1007.39 1007.66 1007.88 1008.07 1008.23 1008.39 1008.55 1008.74 1008.97 1009.21 1009.47 1009.70 1009.88 1009.99 1010.02 1009.98 1009.88 1009.75 1009.65 1009.60 1009.64 1009.80 1010.09 1010.49 1010.98 1011.53 1012.10
1001.15 1001.63 1002.18 1002.75 1003.28 1003.74 1004.11 1004.39 1004.62 1004.81 1005.00 1005.22 1005.47 1005.76 1006.08 1006.41 1006.75 1007.06 1007.35 1007.61 1007.86 1008.10 1008.34 1008.61 1008.90 1009.21 1009.53 1009.83 1010.09 1010.29 1010.41 1010.45 1010.43 1010.36 1010.28 1010.23 1010.24 1010.35 1010.56 1010.88 1011.30 1011.79 1012.33 1012.87
999.37 999.59 999.95 1000.39 1000.88 1001.39 1001.89 1002.38 1002.85 1003.31 1003.77 1004.21 1004.66 1005.10 1005.52 1005.92 1006.30 1006.65 1006.98 1007.29 1007.60 1007.92 1008.26 1008.63 1009.02 1009.41 1009.79 1010.13 1010.41 1010.62 1010.75 1010.80 1010.79 1010.75 1010.72 1010.73 1010.81 1010.98 1011.25 1011.62 1012.07 1012.57 1013.09 1013.62
998.15 998.15 998.31 998.62 999.03 999.54 1000.11 1000.73 1001.38 1002.03 1002.68 1003.30 1003.90 1004.45 1004.96 1005.42 1005.84 1006.22 1006.59 1006.95 1007.33 1007.73 1008.17 1008.62 1009.09 1009.55 1009.99 1010.36 1010.66 1010.87 1011.00 1011.05 1011.06 1011.05 1011.07 1011.14 1011.28 1011.52 1011.86 1012.28 1012.77 1013.29 1013.82 1014.34
Thickness
5528 5520 5517 5523 5525 5528 5524 5521 5520 5523 5526 5522 5520 5525 5533 5534 5532 5533 5534 5535 5536 5538 5540 5540 5540 5541 5542 5542 5542 5543 5542 5542 5542 5542 5541 5541 5541 5542 5542 5542 5543 5543 5543 5543
5514 5513 5520 5520 5520 5519 5516 5514 5512 5514 5517 5514 5514 5518 5527 5528 5528 5529 5530 5530 5531 5530 5530 5530 5530 5530 5531 5532 5532 5532 5532 5532 5532 5532 5533 5533 5532 5532 5532 5532 5533 5533 5533 5533
5509 5513 5515 5513 5510 5510 5509 5506 5507 5506 5505 5505 5504 5511 5518 5524 5523 5524 5522 5523 5523 5524 5522 5522 5521 5521 5521 5521 5521 5522 5522 5522 5522 5522 5522 5522 5521 5520 5520 5521 5522 5522 5523 5523
5501 5504 5507 5506 5504 5504 5503 5505 5502 5500 5493 5490 5495 5494 5512 5514 5515 5516 5514 5513 5513 5514 5514 5513 5512 5511 5511 5510 5511 5511 5511 5510 5510 5510 5511 5511 5510 5509 5509 5510 5510 5511 5511 5512
5494 5496 5498 5498 5498 5498 5497 5498 5495 5493 5487 5480 5480 5478 5501 5504 5506 5507 5508 5507 5506 5504 5504 5504 5503 5502 5501 5500 5500 5499 5499 5499 5499 5499 5499 5499 5498 5498 5497 5498 5498 5499 5500 5501
5487 5488 5489 5491 5491 5491 5489 5486 5482 5473 5469 5465 5478 5472 5489 5492 5502 5503 5502 5500 5497 5495 5494 5494 5493 5491 5489 5488 5488 5488 5487 5487 5487 5487 5487 5487 5486 5486 5485 5486 5486 5486 5487 5488
5479 5480 5481 5482 5481 5481 5479 5471 5458 5453 5443 5457 5472 5470 5483 5493 5495 5495 5494 5491 5488 5486 5484 5481 5480 5479 5478 5476 5476 5476 5476 5475 5475 5474 5474 5474 5474 5474 5474 5474 5474 5474 5474 5476
5467 5469 5473 5472 5474 5470 5469 5467 5458 5451 5449 5452 5457 5462 5481 5484 5483 5483 5483 5481 5477 5474 5473 5471 5469 5468 5466 5465 5464 5464 5463 5462 5462 5461 5461 5461 5461 5461 5461 5461 5462 5462 5463 5464
5457 5462 5465 5464 5464 5464 5458 5453 5457 5443 5428 5427 5443 5454 5468 5475 5474 5473 5472 5470 5467 5464 5463 5461 5459 5457 5455 5454 5453 5451 5451 5449 5449 5448 5448 5447 5447 5447 5448 5448 5449 5449 5450 5451
5454 5447 5452 5451 5453 5452 5450 5446 5434 5429 5423 5424 5437 5445 5461 5469 5469 5465 5462 5459 5457 5454 5452 5449 5447 5445 5444 5442 5440 5439 5438 5437 5436 5435 5435 5435 5434 5434 5434 5435 5435 5436 5437 5438
5445 5437 5436 5437 5436 5439 5435 5432 5430 5422 5417 5421 5421 5449 5461 5462 5461 5459 5455 5452 5447 5444 5441 5438 5435 5434 5431 5429 5427 5426 5425 5424 5423 5423 5422 5422 5421 5421 5421 5421 5422 5423 5424 5425
5434 5423 5419 5426 5428 5428 5428 5430 5423 5419 5409 5412 5419 5443 5456 5449 5449 5448 5446 5443 5439 5434 5430 5427 5424 5421 5419 5417 5416 5415 5414 5413 5412 5411 5409 5409 5408 5408 5408 5408 5408 5409 5411 5412
5423 5411 5406 5416 5415 5411 5411 5415 5412 5408 5403 5397 5404 5434 5442 5437 5436 5436 5434 5431 5427 5423 5420 5416 5413 5410 5409 5407 5405 5404 5402 5401 5400 5399 5397 5396 5396 5395 5395 5395 5396 5396 5398 5399
5417 5403 5407 5420 5424 5409 5401 5403 5401 5398 5395 5393 5407 5428 5435 5430 5427 5427 5424 5420 5416 5412 5410 5406 5403 5401 5399 5397 5395 5393 5391 5390 5388 5387 5386 5385 5384 5384 5383 5382 5382 5383 5384 5385
5403 5395 5390 5398 5402 5398 5399 5400 5394 5393 5400 5402 5417 5417 5430 5426 5420 5419 5416 5412 5408 5405 5402 5399 5395 5392 5389 5387 5385 5383 5380 5379 5378 5376 5375 5374 5372 5371 5370 5370 5369 5369 5370 5372
5387 5382 5376 5378 5385 5386 5388 5395 5393 5394 5395 5395 5401 5410 5423 5416 5411 5408 5406 5403 5399 5397 5394 5391 5387 5384 5381 5379 5376 5373 5370 5368 5367 5365 5364 5362 5361 5359 5358 5357 5357 5356 5357 5358
5372 5366 5364 5367 5364 5369 5377 5398 5395 5391 5393 5394 5398 5415 5411 5405 5403 5401 5398 5395 5393 5390 5386 5382 5379 5376 5373 5370 5367 5363 5361 5358 5356 5354 5352 5351 5349 5348 5346 5345 5344 5344 5344 5345
5363 5356 5347 5342 5348 5365 5411 5409 5401 5395 5394 5393 5397 5402 5401 5402 5398 5393 5389 5386 5384 5382 5378 5374 5370 5366 5363 5359 5356 5353 5350 5347 5345 5343 5341 5339 5337 5336 5334 5333 5333 5332 5332 5332
5362 5354 5338 5332 5339 5359 5391 5397 5392 5387 5390 5394 5391 5394 5390 5385 5380 5382 5382 5378 5376 5373 5368 5364 5360 5356 5352 5349 5346 5342 5340 5337 5335 5333 5331 5328 5326 5324 5323 5322 5321 5320 5319 5319
5347 5346 5336 5326 5335 5350 5400 5396 5390 5385 5383 5394 5386 5384 5379 5373 5369 5382 5377 5368 5364 5360 5356 5353 5349 5345 5341 5339 5336 5333 5330 5327 5326 5324 5321 5318 5316 5314 5312 5311 5310 5308 5307 5308
5332 5330 5331 5326 5328 5352 5382 5379 5377 5372 5389 5390 5382 5379 5372 5367 5372 5371 5362 5356 5353 5349 5345 5342 5338 5334 5332 5329 5326 5323 5321 5319 5316 5312 5310 5307 5306 5304 5302 5300 5298 5296 5295 5295
5336 5325 5323 5320 5322 5354 5373 5364 5370 5381 5380 5376 5372 5368 5364 5360 5355 5351 5348 5345 5342 5338 5335 5331 5327 5324 5322 5319 5316 5313 5311 5309 5305 5301 5299 5296 5294 5292 5291 5289 5287 5285 5283 5282
5341 5349 5346 5347 5362 5369 5361 5364 5366 5363 5362 5362 5360 5357 5353 5346 5343 5339 5337 5333 5331 5327 5323 5319 5315 5312 5310 5307 5305 5303 5301 5297 5293 5290 5288 5286 5283 5281 5280 5278 5276 5274 5272 5272
5334 5336 5335 5335 5349 5352 5350 5349 5350 5348 5347 5348 5346 5343 5339 5335 5332 5328 5325 5322 5319 5316 5312 5307 5303 5300 5298 5296 5294 5291 5289 5285 5282 5280 5278 5276 5273 5271 5269 5267 5266 5265 5264 5263
5335 5324 5324 5329 5340 5339 5342 5342 5341 5338 5335 5333 5331 5328 5326 5323 5319 5316 5313 5311 5308 5305 5301 5296 5292 5290 5288 5285 5282 5280 5277 5274 5272 5270 5268 5265 5263 5261 5258 5257 5256 5256 5257 5257
5323 5322 5326 5340 5340 5336 5342 5339 5332 5327 5325 5322 5318 5315 5313 5310 5307 5304 5301 5299 5296 5292 5289 5285 5281 5279 5276 5273 5271 5269 5267 5264 5262 5260 5258 5255 5253 5250 5248 5247 5246 5246 5247 5248